Wind_Speed
5 8 6 5 6 4 2 2 5 10 8 13 7 12 12 14 12 6 19 17 20 19 16 15 16 14 13 13 12 12 12 11 10 9 7 6 5 4 2 2 4 3 2 2 2 2 4 4 4
2 6 5 7 5 1 4 5 11 10 11 13 9 6 11 15 12 16 16 21 20 17 14 14 15 13 11 13 11 11 11 9 8 8 7 4 2 2 2 2 2 1 3 4 4 3 4 4 5
2 5 10 5 6 3 1 8 10 10 6 4 7 7 7 10 7 13 18 20 19 18 16 13 13 13 10 11 10 10 9 7 6 5 4 3 2 2 2 2 4 4 4 4 4 4 3 4 7
5 4 6 5 10 4 4 4 12 10 8 3 2 12 11 10 7 14 20 21 17 21 15 14 13 11 10 10 9 9 8 6 5 6 5 4 3 2 3 4 4 3 2 3 5 5 4 5 6
4 10 5 4 7 3 6 6 3 2 6 9 3 12 10 6 11 19 23 19 17 18 9 15 13 11 10 10 8 8 8 6 6 6 7 5 4 3 3 3 3 5 6 5 4 5 5 4 5
9 6 5 8 3 4 5 2 2 4 4 6 5 11 11 10 16 21 20 19 16 14 12 12 13 10 9 9 7 7 7 7 7 8 7 5 4 5 4 5 4 5 6 4 3 4 3 1 1
5 9 5 7 3 4 2 2 2 7 10 7 2 16 11 13 16 18 19 19 15 13 18 10 11 11 10 9 8 7 8 8 8 7 5 3 3 4 3 3 4 4 4 3 3 2 3 1 3
9 7 5 5 6 2 4 3 2 3 10 8 3 4 16 17 17 18 18 16 15 12 10 13 13 11 6 8 7 6 8 9 9 9 5 2 2 2 2 1 2 2 3 3 1 2 3 2 3
8 6 6 9 9 0 3 6 5 4 7 3 4 6 20 20 20 19 17 17 16 14 11 11 10 9 13 7 6 7 9 9 10 7 6 6 6 3 4 3 5 2 2 1 2 5 6 7 8
10 5 7 6 9 4 6 6 10 7 8 7 8 8 16 20 20 19 19 16 15 14 11 15 10 10 10 8 8 8 8 9 11 10 7 6 6 7 7 3 4 3 2 4 4 6 9 9 8
8 7 10 8 7 9 6 5 3 5 6 8 13 13 18 19 18 17 18 15 17 15 14 15 9 12 9 10 8 12 9 10 8 8 11 4 4 3 3 3 2 0 2 6 6 4 6 8 11
6 2 5 6 4 4 3 6 4 7 2 9 8 15 18 19 18 17 16 17 15 17 15 15 14 16 13 11 7 10 8 9 6 8 13 5 5 3 4 1 1 4 7 8 5 10 8 8 4
3 11 4 3 0 4 2 3 2 5 8 8 11 16 17 18 18 16 13 15 15 15 15 13 16 15 14 9 12 14 11 8 8 7 6 6 4 4 2 2 4 0 3 5 3 8 5 5 5
10 11 1 2 2 5 7 6 10 16 6 10 12 14 14 15 21 16 14 15 15 13 15 14 13 12 11 11 12 15 10 10 9 7 7 11 7 6 4 1 3 1 2 2 4 3 7 5 3
9 11 5 8 4 4 6 8 13 7 8 11 13 13 12 11 12 16 18 17 14 15 15 14 13 12 10 12 12 17 9 13 8 7 6 8 5 5 3 3 2 1 3 4 2 4 4 5 2
8 10 2 9 5 5 10 7 13 6 13 13 14 13 12 10 12 11 11 11 14 15 18 15 13 12 10 10 11 12 13 15 8 7 6 8 6 8 3 6 8 4 1 1 4 4 4 3 4
9 4 7 1 7 5 10 4 11 14 17 18 16 16 14 13 10 9 12 12 13 15 16 17 15 13 12 13 13 11 12 10 9 7 7 9 7 6 7 8 1 3 2 2 4 7 3 3 5
7 10 6 9 8 6 8 8 18 17 24 17 17 16 17 20 15 14 12 12 15 16 17 17 16 15 14 12 13 10 9 8 9 8 8 6 7 8 7 7 4 2 7 7 4 3 3 5 7
8 11 6 10 2 5 9 8 14 20 20 19 19 20 20 20 19 17 13 12 14 17 19 19 18 18 15 13 13 15 12 11 10 9 8 5 5 5 7 5 6 4 5 4 6 4 5 5 4
9 13 0 5 3 7 9 11 12 15 19 21 24 21 18 16 21 18 16 15 14 15 19 21 19 18 17 15 14 15 13 11 14 10 9 8 6 7 8 8 7 6 7 7 5 7 4 5 4
12 14 6 1 5 10 13 11 11 15 18 21 21 24 23 23 21 20 19 18 16 16 18 19 20 21 18 16 16 15 14 9 11 11 9 9 7 8 7 7 8 4 7 8 3 7 7 8 3
13 7 5 5 10 3 25 2 14 11 15 18 24 24 26 23 21 20 20 20 18 16 16 19 20 21 19 19 17 17 13 14 11 11 10 12 12 9 9 7 5 8 7 10 6 5 7 6 5
8 3 10 7 12 8 8 6 7 14 13 14 16 27 26 25 25 22 20 21 19 17 16 18 20 21 21 21 19 17 16 14 11 12 10 13 11 14 10 7 8 7 6 8 10 8 7 6 6
9 12 17 16 9 5 5 13 10 7 5 1 5 15 26 25 26 22 19 20 18 17 16 17 20 22 23 20 24 19 17 14 13 12 12 10 7 6 7 10 8 8 7 8 7 8 8 10 9
10 18 7 7 8 5 16 10 3 2 3 3 4 9 18 25 21 23 23 21 19 18 17 17 19 22 24 23 21 20 18 19 12 10 12 10 12 10 11 10 13 8 9 8 8 10 8 8 6
12 13 6 11 9 2 13 5 5 6 3 4 2 9 16 21 21 22 22 21 21 20 19 17 19 20 21 22 22 21 19 16 16 15 14 12 10 9 8 8 8 10 9 9 8 8 6 8 6
16 7 14 13 12 8 6 9 7 4 5 6 8 13 16 19 22 22 21 21 21 21 20 18 17 18 19 20 21 20 19 20 18 16 15 14 13 11 11 9 10 10 11 11 10 7 9 11 9
13 15 12 8 4 10 3 9 5 11 8 8 10 15 17 19 20 20 19 19 19 19 19 18 17 18 18 20 20 21 20 20 22 18 18 16 15 14 13 9 11 12 11 13 14 12 10 9 10
9 12 12 16 11 7 7 5 5 9 9 8 10 14 18 20 20 19 18 18 19 20 20 19 19 17 18 20 20 20 21 20 20 21 19 19 19 20 18 14 14 15 15 15 15 12 14 13 11
7 15 12 6 10 9 10 6 13 8 9 9 10 14 15 18 20 19 18 19 18 20 20 20 19 19 18 18 20 20 20 21 20 20 20 19 20 20 20 18 16 15 15 16 16 15 14 15 13
Wind_Direction
1 14 316 284 257 213 161 33 160 95 78 77 76 52 71 47 26 91 137 150 140 146 147 138 137 133 128 130 130 129 126 127 130 142 142 130 113 114 117 109 111 114 95 91 93 103 131 146 156
323 313 294 267 255 88 349 128 68 70 78 95 94 137 84 68 62 123 141 157 139 141 140 144 139 134 131 127 130 127 127 129 136 138 144 139 114 110 101 97 97 84 99 94 98 96 85 108 115
9 287 275 297 311 63 259 83 83 93 124 137 104 35 27 74 102 130 147 143 146 139 153 167 142 142 142 133 131 126 127 133 141 151 159 166 164 137 115 101 87 87 98 103 96 92 99 105 113
309 236 263 273 30 343 83 200 109 133 117 62 112 96 93 89 121 135 150 146 144 140 167 174 154 150 146 141 144 138 130 130 146 154 166 153 151 133 105 96 99 100 98 111 107 110 110 109 120
301 263 219 76 85 187 146 86 85 82 105 122 278 88 82 95 129 142 149 147 149 160 162 167 160 160 156 147 157 148 137 142 142 125 138 132 124 124 141 126 114 108 115 110 103 93 92 110 136
264 267 268 80 105 152 166 126 287 109 101 99 156 124 74 123 135 147 151 148 153 148 159 174 162 162 163 154 167 160 148 154 147 141 142 135 116 119 122 132 132 117 119 108 105 79 84 103 122
309 305 7 342 77 208 168 167 2 57 239 144 113 93 124 150 147 156 153 150 149 155 161 161 169 173 173 164 171 163 161 166 153 139 146 145 151 130 130 134 139 131 116 107 75 49 90 92 80
297 275 293 24 8 22 197 163 259 85 289 87 281 152 158 159 156 160 158 155 156 169 159 187 180 162 149 169 180 178 179 173 159 148 188 154 137 129 116 98 113 104 104 139 360 8 300 270 225
277 274 347 19 10 317 140 203 187 248 195 78 81 33 143 158 158 163 165 160 162 170 180 168 172 161 185 201 205 186 182 170 167 182 184 98 127 75 290 180 236 167 198 153 246 296 281 262 254
291 27 347 5 321 354 186 152 161 197 155 145 116 118 142 156 162 169 170 173 176 178 179 170 182 180 201 202 220 173 167 165 178 179 139 104 179 176 150 237 231 197 218 297 315 310 287 280 268
353 357 349 355 347 299 261 150 212 205 211 246 148 154 157 162 165 174 174 180 180 179 174 182 163 167 179 212 200 173 179 151 203 185 156 168 187 163 139 262 171 83 304 285 283 309 293 291 311
285 354 332 350 337 263 156 185 238 107 197 264 121 158 164 168 170 181 184 176 174 180 188 205 191 216 200 205 201 165 174 158 174 176 137 161 155 181 172 199 168 186 267 291 285 293 297 294 329
329 338 356 357 337 241 237 169 275 283 156 102 129 153 169 169 173 189 190 171 176 188 193 187 202 211 197 188 168 175 174 172 165 173 157 181 194 176 183 163 163 219 229 289 289 302 320 321 299
347 307 31 249 157 226 227 202 206 166 153 127 143 157 168 175 168 183 183 179 188 189 199 201 199 197 191 181 172 168 163 180 172 167 206 163 177 214 157 186 156 226 277 282 289 278 323 282 313
296 291 219 204 206 217 208 238 225 239 171 158 159 168 167 174 173 177 185 191 204 193 195 191 194 186 188 179 196 182 165 171 167 180 195 174 187 239 170 243 237 90 269 312 326 303 323 345 4
265 252 253 182 176 187 231 303 200 184 167 193 173 172 172 171 178 177 186 194 191 196 190 203 190 187 189 175 179 182 194 154 174 188 201 199 211 198 255 215 209 129 197 305 315 277 332 267 309
190 300 346 64 177 202 206 233 154 184 194 208 194 174 172 176 194 184 182 191 202 199 191 191 183 186 189 181 175 207 188 160 191 193 199 236 214 235 206 255 2 93 185 258 297 317 297 280 312
341 315 329 298 162 201 235 200 204 185 207 198 200 187 175 195 190 191 196 183 189 193 194 196 181 190 181 188 178 182 190 191 199 200 203 209 211 238 243 282 335 357 292 44 289 281 323 288 319
297 294 318 301 113 265 247 256 173 182 210 196 215 198 200 181 197 195 196 192 184 191 193 194 193 193 186 194 186 188 192 195 202 208 212 216 233 231 240 237 283 281 277 281 310 317 285 263 293
257 260 110 194 212 232 254 248 226 201 202 215 203 216 212 189 178 188 199 198 197 195 192 195 196 196 188 188 186 193 198 207 203 212 211 210 226 231 224 219 242 253 262 264 267 282 241 256 260
238 280 163 270 253 237 287 263 269 213 201 203 218 212 214 191 198 200 200 200 197 198 200 201 197 197 186 190 188 193 198 204 194 202 207 229 220 227 224 238 224 239 255 267 222 269 265 280 236
275 294 279 262 272 108 256 244 294 179 198 199 206 214 216 207 213 185 201 199 199 198 202 202 203 201 190 190 192 198 199 204 216 199 214 213 203 215 232 248 256 262 231 250 260 269 232 261 264
307 263 287 260 266 259 356 332 229 255 192 185 211 204 216 204 211 195 206 194 197 196 199 203 207 205 191 198 187 201 195 207 217 199 198 222 235 216 215 243 250 249 246 255 246 237 234 222 281
299 253 235 235 262 65 260 260 84 198 7 314 186 208 201 215 198 200 201 187 193 194 197 199 204 207 199 198 189 197 208 206 208 207 213 217 238 248 235 222 244 247 243 265 262 235 232 207 222
238 255 241 258 214 223 221 229 111 357 38 338 275 192 194 192 193 189 184 187 191 190 194 197 199 211 205 198 203 203 208 211 213 201 212 218 226 222 236 246 234 239 261 233 239 249 220 235 229
218 280 296 292 322 151 190 198 75 18 89 95 133 160 171 181 183 187 183 189 192 192 194 196 200 204 207 209 208 211 211 209 213 224 209 222 224 241 230 228 236 252 236 245 244 239 236 243 256
256 223 285 300 264 238 127 77 40 117 98 130 134 154 168 179 177 186 185 192 193 193 194 195 199 198 202 204 207 211 215 204 214 217 234 221 225 232 264 266 246 222 232 236 235 233 242 242 247
261 292 288 214 260 248 72 285 112 292 146 126 146 161 168 177 180 184 185 191 192 195 195 194 197 197 199 201 207 211 217 218 208 217 221 221 226 236 236 233 255 226 229 241 240 236 248 241 227
182 229 241 279 299 309 241 69 40 107 134 149 155 158 166 174 182 184 185 189 191 193 197 196 196 195 196 199 205 208 213 219 222 223 227 232 232 229 237 235 239 237 243 234 238 239 239 244 242
293 279 213 222 220 260 300 161 246 130 130 148 149 156 165 171 177 183 185 187 190 195 197 200 201 200 200 203 202 209 212 214 221 225 226 231 239 238 240 236 237 240 238 243 252 241 244 257 248
Height
1513 1512 1515 1514 1511 1493 1499 1494 1483 1488 1492 1496 1500 1498 1503 1510 1508 1526 1527 1530 1534 1538 1538 1540 1542 1544 1545 1547 1549 1551 1552 1553 1554 1555 1556 1556 1558 1558 1558 1559 1560 1561 1562 1562 1562 1563 1565 1566 1566
1517 1517 1515 1508 1508 1512 1521 1488 1500 1494 1497 1500 1504 1503 1503 1513 1518 1522 1526 1529 1534 1540 1543 1542 1543 1545 1547 1547 1550 1552 1553 1554 1555 1556 1557 1557 1558 1558 1559 1560 1561 1561 1562 1563 1563 1564 1565 1566 1567
1517 1516 1512 1503 1499 1521 1523 1498 1493 1498 1502 1500 1504 1505 1508 1516 1523 1525 1527 1532 1535 1539 1544 1542 1544 1546 1548 1548 1551 1553 1554 1555 1556 1557 1557 1558 1559 1559 1560 1561 1561 1562 1563 1564 1565 1565 1566 1567 1568
1519 1516 1511 1509 1508 1507 1506 1503 1499 1502 1504 1505 1503 1508 1519 1522 1524 1526 1530 1534 1537 1542 1542 1543 1545 1547 1548 1551 1552 1553 1555 1556 1556 1557 1558 1558 1559 1560 1561 1561 1562 1563 1564 1564 1565 1566 1566 1567 1568
1517 1508 1507 1509 1510 1505 1504 1499 1499 1501 1502 1502 1503 1507 1520 1525 1525 1528 1532 1535 1539 1542 1543 1544 1546 1548 1550 1552 1553 1554 1556 1556 1557 1558 1558 1559 1560 1561 1561 1562 1563 1563 1564 1565 1566 1567 1567 1568 1569
1509 1504 1510 1509 1508 1504 1505 1503 1501 1502 1502 1506 1503 1509 1521 1526 1528 1531 1533 1536 1540 1543 1545 1545 1546 1549 1551 1552 1553 1555 1556 1557 1558 1559 1559 1560 1561 1562 1563 1563 1564 1564 1565 1566 1567 1568 1568 1568 1569
1510 1503 1499 1498 1503 1504 1504 1504 1505 1508 1505 1502 1506 1512 1523 1526 1529 1532 1534 1538 1540 1545 1543 1547 1549 1549 1551 1552 1554 1555 1557 1558 1559 1560 1561 1561 1563 1563 1564 1564 1565 1566 1566 1567 1567 1568 1568 1568 1568
1510 1505 1496 1500 1504 1512 1504 1507 1509 1510 1512 1506 1507 1511 1516 1524 1528 1532 1534 1538 1541 1544 1544 1547 1549 1550 1552 1553 1554 1555 1557 1558 1559 1559 1562 1563 1564 1564 1565 1565 1566 1566 1567 1567 1567 1568 1567 1566 1565
1510 1505 1517 1507 1508 1510 1507 1507 1510 1511 1507 1507 1510 1509 1515 1523 1527 1531 1534 1537 1541 1543 1546 1547 1550 1552 1553 1554 1554 1555 1556 1558 1559 1559 1563 1564 1565 1566 1567 1566 1567 1567 1566 1567 1568 1567 1566 1564 1564
1504 1506 1508 1503 1504 1507 1506 1512 1507 1508 1506 1508 1511 1515 1519 1524 1527 1530 1533 1537 1541 1544 1545 1548 1551 1553 1553 1554 1554 1555 1557 1558 1559 1561 1564 1564 1569 1569 1569 1568 1567 1568 1568 1567 1568 1567 1565 1564 1568
1506 1507 1506 1504 1509 1507 1505 1505 1508 1507 1509 1513 1505 1515 1520 1524 1528 1532 1534 1537 1540 1543 1546 1547 1549 1551 1554 1552 1554 1555 1558 1558 1560 1561 1564 1568 1568 1568 1569 1569 1568 1569 1569 1569 1568 1567 1563 1563 1562
1507 1504 1507 1507 1510 1508 1505 1512 1509 1513 1516 1507 1507 1514 1520 1523 1529 1532 1533 1535 1539 1542 1545 1547 1548 1550 1552 1553 1553 1555 1558 1560 1561 1561 1564 1567 1567 1569 1569 1569 1568 1571 1570 1569 1568 1567 1566 1564 1564
1502 1502 1504 1509 1510 1508 1507 1509 1510 1509 1508 1509 1511 1515 1519 1521 1529 1532 1533 1535 1539 1542 1545 1546 1546 1549 1551 1552 1554 1556 1559 1561 1563 1562 1564 1567 1568 1569 1569 1570 1570 1571 1572 1570 1569 1568 1567 1566 1565
1507 1503 1503 1506 1504 1507 1507 1509 1507 1510 1508 1511 1515 1516 1518 1519 1524 1530 1532 1535 1538 1541 1543 1545 1547 1547 1550 1552 1554 1556 1559 1561 1564 1565 1565 1565 1566 1569 1569 1570 1570 1572 1572 1572 1571 1570 1568 1567 1568
1506 1501 1495 1498 1502 1505 1507 1510 1505 1509 1509 1510 1513 1515 1517 1520 1522 1526 1529 1532 1536 1539 1542 1543 1546 1547 1549 1551 1553 1556 1558 1560 1563 1565 1565 1567 1567 1569 1568 1570 1570 1570 1571 1570 1570 1569 1569 1568 1568
1501 1497 1497 1493 1499 1502 1505 1511 1501 1507 1510 1509 1510 1513 1516 1520 1522 1526 1530 1532 1534 1536 1541 1542 1546 1547 1548 1551 1553 1556 1556 1559 1563 1565 1566 1566 1568 1567 1568 1567 1563 1568 1570 1572 1570 1570 1569 1569 1570
1492 1495 1500 1494 1494 1496 1500 1500 1498 1505 1506 1507 1507 1509 1515 1520 1523 1524 1527 1530 1533 1535 1538 1541 1544 1546 1548 1551 1554 1555 1557 1558 1563 1565 1567 1565 1568 1569 1566 1565 1559 1566 1570 1569 1571 1570 1569 1567 1570
1503 1494 1497 1499 1492 1494 1497 1493 1497 1502 1501 1501 1504 1506 1510 1514 1519 1523 1526 1527 1530 1534 1536 1539 1543 1545 1548 1549 1552 1556 1558 1561 1562 1565 1566 1564 1568 1569 1568 1565 1563 1567 1568 1565 1569 1570 1569 1569 1568
1495 1493 1494 1494 1487 1491 1487 1485 1487 1491 1495 1498 1501 1500 1504 1508 1515 1519 1522 1526 1528 1531 1534 1538 1540 1543 1546 1548 1552 1555 1558 1560 1562 1564 1565 1565 1567 1568 1569 1568 1568 1569 1570 1571 1570 1571 1569 1566 1568
1490 1490 1488 1492 1487 1489 1483 1482 1476 1479 1487 1491 1495 1498 1499 1503 1510 1515 1518 1522 1525 1529 1531 1535 1538 1541 1544 1548 1551 1554 1556 1559 1560 1563 1564 1566 1567 1568 1568 1568 1568 1570 1570 1570 1571 1570 1568 1568 1567
1482 1483 1483 1487 1480 1481 1484 1482 1477 1472 1478 1485 1488 1492 1494 1499 1504 1510 1515 1519 1522 1526 1530 1532 1535 1538 1542 1546 1548 1552 1555 1556 1558 1561 1562 1564 1565 1567 1567 1568 1567 1568 1568 1569 1568 1568 1567 1565 1565
1483 1479 1479 1480 1488 1507 1496 1510 1506 1464 1470 1475 1481 1485 1488 1493 1498 1504 1512 1515 1519 1523 1527 1530 1532 1535 1539 1543 1546 1549 1553 1555 1557 1558 1560 1561 1564 1565 1567 1568 1568 1568 1568 1567 1568 1567 1566 1566 1564
1483 1479 1480 1475 1476 1474 1496 1500 1481 1467 1464 1466 1471 1476 1483 1487 1494 1499 1507 1510 1516 1521 1524 1528 1530 1532 1536 1540 1544 1547 1550 1552 1554 1556 1558 1559 1560 1562 1564 1566 1566 1567 1567 1566 1565 1565 1565 1565 1564
1480 1478 1472 1465 1471 1511 1505 1493 1478 1496 1464 1461 1464 1469 1475 1483 1487 1495 1503 1508 1514 1518 1522 1525 1528 1530 1533 1537 1540 1544 1547 1549 1551 1553 1555 1557 1558 1559 1560 1564 1564 1565 1565 1564 1564 1564 1563 1563 1563
1479 1474 1499 1489 1487 1527 1477 1473 1470 1455 1457 1462 1463 1465 1470 1480 1484 1492 1499 1505 1511 1516 1520 1523 1525 1527 1530 1534 1538 1541 1545 1547 1549 1552 1554 1556 1557 1558 1559 1559 1561 1562 1561 1562 1563 1562 1562 1562 1563
1472 1467 1486 1502 1482 1476 1457 1480 1466 1455 1457 1462 1464 1466 1471 1479 1485 1491 1496 1503 1509 1513 1517 1520 1522 1525 1527 1530 1534 1537 1541 1545 1547 1549 1551 1554 1555 1557 1556 1557 1558 1559 1560 1561 1561 1561 1561 1561 1561
1469 1476 1457 1466 1452 1465 1460 1465 1463 1457 1457 1460 1464 1468 1472 1478 1483 1489 1495 1500 1506 1510 1514 1517 1520 1522 1526 1529 1531 1535 1538 1540 1545 1547 1548 1550 1552 1552 1553 1552 1554 1557 1558 1559 1559 1558 1559 1558 1559
1469 1460 1471 1464 1490 1493 1476 1465 1475 1476 1458 1459 1464 1467 1473 1478 1483 1488 1493 1499 1503 1508 1511 1515 1517 1519 1523 1526 1529 1532 1535 1537 1539 1543 1545 1547 1549 1550 1551 1552 1552 1553 1555 1555 1555 1556 1557 1556 1557
1466 1470 1464 1456 1458 1470 1480 1485 1446 1450 1453 1457 1461 1465 1471 1477 1482 1487 1492 1497 1501 1505 1509 1512 1515 1517 1519 1523 1526 1529 1531 1534 1535 1538 1540 1541 1543 1545 1546 1549 1550 1551 1550 1551 1552 1552 1553 1553 1553
1450 1452 1451 1467 1476 1456 1457 1476 1450 1447 1449 1455 1460 1465 1469 1474 1481 1486 1490 1495 1499 1503 1507 1510 1513 1515 1517 1520 1522 1524 1527 1529 1532 1534 1536 1538 1539 1541 1542 1544 1545 1547 1547 1548 1548 1548 1550 1549 1550